�N����,����,����,����,����,�C��,���x,�~����,�S�V����,�ő�u�ԕ���,,,
,,,,,,,,,����,����,����,�N��
yyyy/mm/dd,hh:mm:ss,-16,16����,m/s,��,%,mm,KW/�u,-16,16����,m/s,Time
2012/10/1,1:00:00,315,�k��,1.7,17.5,99.6,0.5,0,315,�k��,2.6,54
2012/10/1,2:00:00,338,�k�k��,1.7,17.4,99.1,2,0,338,�k�k��,4.3,28
2012/10/1,3:00:00,315,�k��,1.6,17.2,98.9,5,0,338,�k�k��,3.2,7
2012/10/1,4:00:00,338,�k�k��,1.9,17.1,99.2,9,0,338,�k�k��,5,44
2012/10/1,5:00:00,360,�k,1.9,17.2,99.4,13,0,315,�k��,3.9,39
2012/10/1,6:00:00,360,�k,2.6,17.5,99.2,14.5,0,45,�k��,7.1,19
2012/10/1,7:00:00,360,�k,3.7,17.5,98.4,16.5,0.01,360,�k,8.3,49
2012/10/1,8:00:00,315,�k��,6.3,17.3,97.7,15.5,0.01,338,�k�k��,11.3,58
2012/10/1,9:00:00,315,�k��,6.3,18.1,96.9,4,0.08,45,�k��,15.9,31
2012/10/1,10:00:00,315,�k��,6.8,19.8,83.1,0,0.61,315,�k��,15.4,1
2012/10/1,11:00:00,315,�k��,2.4,20.7,83.1,0,0.31,293,���k��,10,2
2012/10/1,12:00:00,315,�k��,0.4,20.9,82.3,0,0.18,315,�k��,4.1,9
2012/10/1,13:00:00,23,�k�k��,1.2,23.3,77.3,0,0.38,45,�k��,2.8,57
2012/10/1,14:00:00,90,��,0.6,22.4,81.1,0,0.43,23,�k�k��,4.3,0
2012/10/1,15:00:00,203,��쐼,1.2,19.6,90.2,0,0.11,180,��,3.7,20
2012/10/1,16:00:00,360,�k,1.5,19.3,93.5,0,0.05,23,�k�k��,3.4,48
2012/10/1,17:00:00,315,�k��,0.7,18.7,95,0,0.01,23,�k�k��,3.1,11
2012/10/1,18:00:00,23,�k�k��,0.7,18.1,91.1,0,0,23,�k�k��,3.5,14
2012/10/1,19:00:00,360,�k,1,17.5,93.7,0,0,360,�k,1.8,48
2012/10/1,20:00:00,338,�É�,0.2,17.2,93.1,0,0,360,�k,1.3,22
2012/10/1,21:00:00,360,�k,0.7,16.7,91,0,0,293,���k��,1.5,32
2012/10/1,22:00:00,338,�k�k��,1,16.4,89.6,0,0,338,�k�k��,2.2,19
2012/10/1,23:00:00,293,���k��,1.3,14.3,97.2,0,0,23,�k�k��,2.5,10
2012/10/1,0:00:00,315,�k��,1.5,14.8,96.4,0,0,338,�k�k��,2.7,40
2012/10/2,1:00:00,293,���k��,2.2,14.4,96.2,0,0,293,���k��,3,54
2012/10/2,2:00:00,315,�k��,1.6,14.7,94.9,0,0,315,�k��,3.2,4
2012/10/2,3:00:00,315,�k��,1.5,14.2,95.7,0,0,338,�k�k��,2.8,58
2012/10/2,4:00:00,293,���k��,1.9,12.8,97.2,0,0,315,�k��,3.2,45
2012/10/2,5:00:00,248,���쐼,0.9,12.2,98.3,0,0,293,���k��,2.2,9
2012/10/2,6:00:00,293,���k��,1.4,13.6,96.3,0,0.01,315,�k��,2.4,50
2012/10/2,7:00:00,315,�k��,1.4,14.3,94.5,0,0.05,338,�k�k��,2.3,30
2012/10/2,8:00:00,270,��,0.9,15.1,90.6,0,0.08,293,���k��,2,59
2012/10/2,9:00:00,293,���k��,1.5,17,83,0,0.22,315,�k��,3.1,22
2012/10/2,10:00:00,360,�k,2.1,19,76.6,0,0.46,338,�k�k��,3.7,53
2012/10/2,11:00:00,135,�쓌,2.5,19.2,76.1,0,0.45,113,���쓌,4,57
2012/10/2,12:00:00,135,�쓌,3.2,17.9,79.3,0,0.38,113,���쓌,5,47
2012/10/2,13:00:00,135,�쓌,2.6,17.9,72.7,0,0.36,113,���쓌,4.7,36
2012/10/2,14:00:00,158,��쓌,1.8,17.6,79.4,0,0.21,113,���쓌,4.1,28
2012/10/2,15:00:00,158,��쓌,1,17.7,78,0,0.14,180,��,2.9,4
2012/10/2,16:00:00,203,��쐼,0.5,17.5,81.2,0,0.1,135,�쓌,2.2,28
2012/10/2,17:00:00,248,���쐼,1,16.2,93.5,0,0.03,248,���쐼,1.6,55
2012/10/2,18:00:00,270,�É�,0,15.8,95.3,0,0,248,���쐼,1.5,18
2012/10/2,19:00:00,270,��,1.1,14.7,97.6,0,0,248,���쐼,1.5,58
2012/10/2,20:00:00,293,���k��,1.2,14.6,97.8,0,0,270,��,2.1,33
2012/10/2,21:00:00,23,�k�k��,1.5,14.4,97.5,0,0,45,�k��,3.6,41
2012/10/2,22:00:00,23,�k�k��,2.1,15.7,95.4,0,0,45,�k��,3.5,51
2012/10/2,23:00:00,45,�k��,1.4,15.3,97.7,0,0,23,�k�k��,3.9,3
2012/10/2,0:00:00,360,�k,1,14.9,97.9,0,0,68,���k��,3.7,19
2012/10/3,1:00:00,23,�k�k��,2.3,14.6,97.7,0,0,23,�k�k��,3.5,58
2012/10/3,2:00:00,23,�k�k��,2.8,14.2,97.7,0,0,23,�k�k��,5.4,45
2012/10/3,3:00:00,23,�k�k��,2.5,14.1,97.2,0.5,0,23,�k�k��,4.9,32
2012/10/3,4:00:00,23,�k�k��,2.4,13.4,96.4,0,0,23,�k�k��,3.4,51
2012/10/3,5:00:00,315,�k��,0.9,12.9,98,0,0,45,�k��,2.7,1
2012/10/3,6:00:00,23,�k�k��,1.5,13.4,98.3,0,0.02,23,�k�k��,2.5,59
2012/10/3,7:00:00,338,�k�k��,0.5,14.3,96.9,0,0.08,23,�k�k��,2.8,2
2012/10/3,8:00:00,45,�k��,3.3,16.4,86.2,0,0.29,45,�k��,5.8,59
2012/10/3,9:00:00,68,���k��,4.3,16,87.5,0,0.38,68,���k��,6,51
2012/10/3,10:00:00,68,���k��,3.1,16.6,85.9,0,0.3,68,���k��,5.5,19
2012/10/3,11:00:00,68,���k��,3.1,16.7,86.9,0,0.27,68,���k��,5.5,25
2012/10/3,12:00:00,68,���k��,3.8,17.3,82.6,0,0.26,68,���k��,6.5,56
2012/10/3,13:00:00,68,���k��,3.7,17.3,84.5,0,0.37,68,���k��,6.3,10
2012/10/3,14:00:00,45,�k��,2.8,16.8,84.5,0,0.31,45,�k��,6.4,15
2012/10/3,15:00:00,68,���k��,2.5,16.6,87.7,0,0.2,45,�k��,5.2,24
2012/10/3,16:00:00,45,�k��,1.8,16.4,90.7,0,0.1,68,���k��,4.3,10
2012/10/3,17:00:00,23,�k�k��,1,15.2,94.2,0,0.03,68,���k��,3.1,2
2012/10/3,18:00:00,315,�k��,0.3,13.9,98.1,0,0,338,�k�k��,1.5,30
2012/10/3,19:00:00,360,�k,0.5,14.6,96.9,0,0,315,�k��,2.8,21
2012/10/3,20:00:00,45,�k��,1.5,14.5,96.5,0,0,45,�k��,2.5,59
2012/10/3,21:00:00,360,�k,0.8,14.1,96.3,0,0,23,�k�k��,2.8,14
2012/10/3,22:00:00,23,�k�k��,1.3,13.8,97,0,0,23,�k�k��,2,41
2012/10/3,23:00:00,23,�k�k��,2.2,14.2,95.2,0,0,23,�k�k��,3.6,58
2012/10/3,0:00:00,23,�k�k��,2,14,96.1,0,0,23,�k�k��,4,59
2012/10/4,1:00:00,23,�k�k��,2.4,13.7,95.7,0,0,23,�k�k��,4.6,41
2012/10/4,2:00:00,23,�k�k��,2.8,13.5,95,0,0,45,�k��,4.5,20
2012/10/4,3:00:00,338,�k�k��,1,12.6,95.8,0,0,360,�k,4.1,1
2012/10/4,4:00:00,360,�k,1.2,12.8,95.8,0,0,360,�k,3.1,41
2012/10/4,5:00:00,338,�k�k��,1.3,13,94.6,0,0,360,�k,2.8,40
2012/10/4,6:00:00,23,�k�k��,2.5,13,93.2,0,0.01,23,�k�k��,4.1,54
2012/10/4,7:00:00,23,�k�k��,2.7,13.1,90.9,0,0.1,23,�k�k��,5.5,23
2012/10/4,8:00:00,45,�k��,3.9,14.6,84.6,0,0.24,45,�k��,6.3,59
2012/10/4,9:00:00,23,�k�k��,4,14.9,80.4,0,0.3,23,�k�k��,7.3,52
2012/10/4,10:00:00,23,�k�k��,3,14.6,80.3,0,0.25,360,�k,6.6,43
2012/10/4,11:00:00,360,�k,2.3,14.5,83.4,0,0.12,360,�k,7,18
2012/10/4,12:00:00,23,�k�k��,4.1,13,91.8,0,0.12,23,�k�k��,6.1,55
2012/10/4,13:00:00,360,�k,1.6,12.9,97,0.5,0.09,23,�k�k��,4.3,23
2012/10/4,14:00:00,315,�k��,3.9,12.8,97.2,0,0.06,315,�k��,6.2,59
2012/10/4,15:00:00,315,�k��,2.7,12.8,97.7,0,0.04,315,�k��,7,0
2012/10/4,16:00:00,315,�k��,2.8,12.8,98.2,0,0.02,68,���k��,6.1,48
2012/10/4,17:00:00,338,�k�k��,2.2,12.9,96.6,0,0.02,315,�k��,5.6,17
2012/10/4,18:00:00,315,�k��,2.5,12.8,95.8,0,0,315,�k��,5.8,10
2012/10/4,19:00:00,315,�k��,2.5,12.8,95.1,0,0,315,�k��,5.4,18
2012/10/4,20:00:00,315,�k��,2.8,13.1,93.1,0,0,315,�k��,5.1,12
2012/10/4,21:00:00,315,�k��,4.1,13,93.2,0,0,315,�k��,6,57
2012/10/4,22:00:00,315,�k��,3.2,13.1,92.1,0,0,315,�k��,6.4,8
2012/10/4,23:00:00,315,�k��,1.5,13.1,91.4,0,0,293,���k��,6.2,1
2012/10/4,0:00:00,315,�k��,2.1,13,92.4,0,0,360,�k,5.4,39
2012/10/5,1:00:00,315,�k��,2.2,13,91.7,0,0,315,�k��,3.7,37
2012/10/5,2:00:00,293,���k��,0.9,12.7,94.1,0,0,293,���k��,3.5,10
2012/10/5,3:00:00,270,��,2.6,12.5,94.2,0,0,270,��,3.2,58
2012/10/5,4:00:00,293,���k��,0.7,11.8,93.9,0,0,270,��,4.5,17
2012/10/5,5:00:00,270,��,2.4,10.7,96.4,0,0,270,��,3.2,52
2012/10/5,6:00:00,270,��,1.7,10.1,97.3,0,0.02,293,���k��,3.3,22
2012/10/5,7:00:00,293,���k��,1,12.9,92.7,0,0.14,293,���k��,3.4,8
2012/10/5,8:00:00,315,�k��,1.8,14.8,81.5,0,0.32,293,���k��,4.1,37
2012/10/5,9:00:00,360,�k,1,17,79.3,0,0.46,315,�k��,2.8,28
2012/10/5,10:00:00,23,�É�,0.2,18.3,77.1,0,0.52,68,���k��,3.2,30
2012/10/5,11:00:00,135,�쓌,2.8,18.5,68.7,0,0.72,135,�쓌,4.4,51
2012/10/5,12:00:00,113,���쓌,4,17.8,71.6,0,0.73,113,���쓌,6.4,55
2012/10/5,13:00:00,158,��쓌,2.5,17.2,78.2,0,0.58,180,��,6.1,43
2012/10/5,14:00:00,180,��,2.9,17.1,78.8,0,0.38,180,��,5.6,26
2012/10/5,15:00:00,158,��쓌,1.5,16.8,85.2,0,0.16,180,��,3.6,1
2012/10/5,16:00:00,158,��쓌,0.7,16.7,89.1,0,0.13,158,��쓌,4.3,30
2012/10/5,17:00:00,315,�É�,0,14.3,95.4,0,0.05,248,���쐼,2.1,35
2012/10/5,18:00:00,248,���쐼,1.3,12.8,99,0,0,270,��,1.8,56
2012/10/5,19:00:00,270,��,0.6,13,99,0,0,270,��,2.2,40
2012/10/5,20:00:00,293,���k��,2,11.8,99.8,0,0,270,��,2.5,53
2012/10/5,21:00:00,293,���k��,1.5,10.5,99.6,0,0,315,�k��,2.7,5
2012/10/5,22:00:00,270,��,1.9,10.4,99.8,0,0,315,�k��,3.4,20
2012/10/5,23:00:00,270,��,2.4,10.5,100,0,0,293,���k��,3.5,55
2012/10/5,0:00:00,293,���k��,2,11.2,100,0,0,293,���k��,2.9,37
2012/10/6,1:00:00,270,��,2.4,10.7,99.9,0,0,270,��,2.8,51
2012/10/6,2:00:00,270,��,1.8,10.6,99.9,0,0,270,��,3.4,7
2012/10/6,3:00:00,293,���k��,1.9,10.1,99.8,0,0,315,�k��,3.5,2
2012/10/6,4:00:00,293,���k��,1.2,10.9,99.9,0,0,293,���k��,2.2,7
2012/10/6,5:00:00,315,�k��,1.7,11.5,99.6,0,0,293,���k��,3.2,16
2012/10/6,6:00:00,315,�k��,1.2,11.2,99.5,0,0.01,293,���k��,3.2,21
2012/10/6,7:00:00,293,���k��,1.9,12,99.7,0,0.09,270,��,2.8,52
2012/10/6,8:00:00,293,���k��,0.7,14.3,98.2,0,0.23,293,���k��,2.4,1
2012/10/6,9:00:00,90,�É�,0.2,15.4,94.7,0,0.2,315,�k��,1.5,35
2012/10/6,10:00:00,113,���쓌,2.7,17.5,87.9,0,0.35,113,���쓌,4.2,57
2012/10/6,11:00:00,158,��쓌,1.8,16.3,92,0,0.22,90,��,3.7,7
2012/10/6,12:00:00,158,��쓌,1.8,18.1,83,0,0.31,180,��,3.6,57
2012/10/6,13:00:00,180,��,2.6,17.8,83.5,0,0.24,180,��,6.5,42
2012/10/6,14:00:00,158,��쓌,3.5,17.7,81.9,0,0.17,135,�쓌,7.4,55
2012/10/6,15:00:00,135,�쓌,1.7,18.6,80.6,0,0.19,135,�쓌,7,3
2012/10/6,16:00:00,203,��쐼,3,18.5,76.1,0,0.12,225,�쐼,5.4,59
2012/10/6,17:00:00,225,�쐼,2.4,17.4,82.2,0,0.03,203,��쐼,5.7,40
2012/10/6,18:00:00,225,�쐼,3.1,17.3,84.2,0,0,203,��쐼,7.2,29
2012/10/6,19:00:00,248,���쐼,2.7,15.5,92.6,0,0,225,�쐼,5,0
2012/10/6,20:00:00,225,�쐼,3.7,15.7,67.9,0,0,225,�쐼,6,50
2012/10/6,21:00:00,270,��,3.8,15.9,64.2,0,0,248,���쐼,7.1,28
2012/10/6,22:00:00,293,���k��,1.3,12.1,86.8,0,0,270,��,5.6,4
2012/10/6,23:00:00,180,��,0.4,9.9,94.8,0,0,315,�k��,2.9,13
2012/10/6,0:00:00,270,��,1.5,10.4,95.8,0,0,315,�k��,2.9,29
2012/10/7,1:00:00,293,���k��,1.4,9.4,97.4,0,0,270,��,3.6,27
2012/10/7,2:00:00,293,���k��,2.3,9.5,97.7,0,0,293,���k��,3.3,57
2012/10/7,3:00:00,293,���k��,2.5,9.2,97.9,0,0,293,���k��,3.6,32
2012/10/7,4:00:00,293,���k��,1.7,8.2,98.5,0,0,315,�k��,3.2,19
2012/10/7,5:00:00,270,��,2.5,8.5,98.4,0,0,293,���k��,3.6,57
2012/10/7,6:00:00,315,�k��,3.1,9.7,91.4,0,0.01,315,�k��,5.2,47
2012/10/7,7:00:00,338,�k�k��,2,10,90.8,0,0.09,293,���k��,4.4,1
2012/10/7,8:00:00,270,��,0.4,12.7,80.9,0,0.24,338,�k�k��,2.7,2
2012/10/7,9:00:00,338,�k�k��,1.8,16.7,67.2,0,0.49,360,�k,3.7,49
2012/10/7,10:00:00,315,�k��,2.6,18.7,50.4,0,0.62,315,�k��,5.4,38
2012/10/7,11:00:00,315,�k��,4,19.6,52.9,0,0.7,315,�k��,8.1,58
2012/10/7,12:00:00,338,�k�k��,3.5,20.4,46.8,0,0.71,315,�k��,8.9,15
2012/10/7,13:00:00,338,�k�k��,3.3,20.5,39.7,0,0.66,315,�k��,8.6,49
2012/10/7,14:00:00,360,�k,2.1,21.2,43.8,0,0.58,360,�k,7.1,48
2012/10/7,15:00:00,315,�k��,2.6,20.6,41.2,0,0.34,360,�k,6.4,11
2012/10/7,16:00:00,338,�k�k��,1,18.1,58.4,0,0.14,315,�k��,5.4,1
2012/10/7,17:00:00,315,�k��,2.2,15.5,66.3,0,0.06,315,�k��,4.6,31
2012/10/7,18:00:00,315,�k��,3,14,71.1,0,0,315,�k��,5.5,9
2012/10/7,19:00:00,315,�k��,3.7,13.5,71.5,0,0,315,�k��,7.4,42
2012/10/7,20:00:00,315,�k��,4,12.7,74.2,0,0,315,�k��,6.6,16
2012/10/7,21:00:00,315,�k��,4.1,12.5,72.8,0,0,315,�k��,8.3,33
2012/10/7,22:00:00,315,�k��,3.8,12.9,63.6,0,0,338,�k�k��,7.8,42
2012/10/7,23:00:00,315,�k��,3.8,12.5,60.2,0,0,360,�k,8.7,47
2012/10/7,0:00:00,315,�k��,3.3,11.8,57.5,0,0,315,�k��,8.2,31
2012/10/8,1:00:00,315,�k��,4.1,11.4,59.6,0,0,315,�k��,7.2,54
2012/10/8,2:00:00,293,���k��,2.9,9.9,68.3,0,0,315,�k��,6.9,7
2012/10/8,3:00:00,293,���k��,2.5,5.5,86.6,0,0,270,��,5.7,16
2012/10/8,4:00:00,293,���k��,1.9,4.1,93.5,0,0,293,���k��,3.5,1
2012/10/8,5:00:00,270,��,1.2,3,92.8,0,0,270,��,3.2,8
2012/10/8,6:00:00,293,���k��,2,3.1,97.9,0,0.02,293,���k��,2.7,49
2012/10/8,7:00:00,293,���k��,1.9,7.8,80.8,0,0.12,270,��,2.9,51
2012/10/8,8:00:00,293,���k��,1.5,12,67.8,0,0.35,293,���k��,3,6
2012/10/8,9:00:00,248,���쐼,1.5,15.5,50.4,0,0.53,270,��,2.9,58
2012/10/8,10:00:00,135,�쓌,1.3,17.5,49.9,0,0.65,293,���k��,4,13
2012/10/8,11:00:00,180,��,2.7,17.5,55.8,0,0.72,180,��,5,35
2012/10/8,12:00:00,158,��쓌,2.6,17.4,53.9,0,0.74,158,��쓌,5.3,40
2012/10/8,13:00:00,158,��쓌,2.6,17.2,56.2,0,0.69,203,��쐼,6.7,15
2012/10/8,14:00:00,180,��,1.9,18,58.3,0,0.58,135,�쓌,5.8,1
2012/10/8,15:00:00,180,��,3.1,17.2,66.6,0,0.44,158,��쓌,7,32
2012/10/8,16:00:00,180,��,1.5,16.3,72.6,0,0.24,158,��쓌,5.9,11
2012/10/8,17:00:00,360,�k,1.7,12.5,89.1,0,0.06,158,��쓌,3.4,2
2012/10/8,18:00:00,293,���k��,1.9,10.8,96.9,0,0,293,���k��,2.7,38
2012/10/8,19:00:00,315,�k��,2.5,11,94.4,0,0,293,���k��,4.8,38
2012/10/8,20:00:00,315,�k��,3.3,11.4,89,0,0,315,�k��,5.6,29
2012/10/8,21:00:00,248,���쐼,1.2,8.8,94.1,0,0,315,�k��,5,24
2012/10/8,22:00:00,270,��,2.3,8,95.8,0,0,270,��,3,42
2012/10/8,23:00:00,270,��,2.1,7.8,94,0,0,270,��,3,43
2012/10/8,0:00:00,293,���k��,1.5,6.7,94.4,0,0,293,���k��,3.8,16
2012/10/9,1:00:00,270,��,2,6.3,94.8,0,0,293,���k��,3.1,34
2012/10/9,2:00:00,293,���k��,2.7,5.1,96.1,0,0,293,���k��,3.6,53
2012/10/9,3:00:00,270,��,1.9,5.5,95.5,0,0,293,���k��,3.6,5
2012/10/9,4:00:00,270,��,2.3,5,96.2,0,0,270,��,2.9,49
2012/10/9,5:00:00,293,���k��,1.9,4.8,95.1,0,0,293,���k��,3.8,37
2012/10/9,6:00:00,293,���k��,2.2,6.1,92.3,0,0.02,315,�k��,3.4,59
2012/10/9,7:00:00,293,���k��,2,8.5,86.3,0,0.12,315,�k��,3.7,0
2012/10/9,8:00:00,270,��,1.3,12.3,76,0,0.35,293,���k��,2.7,3
2012/10/9,9:00:00,90,�É�,0.2,15.9,74.2,0,0.5,338,�k�k��,1.8,14
2012/10/9,10:00:00,90,��,1.4,16.9,71.7,0,0.64,90,��,3,56
2012/10/9,11:00:00,158,��쓌,2.2,17.4,54,0,0.71,180,��,4,54
2012/10/9,12:00:00,135,�É�,0.2,18.3,56.9,0,0.71,158,��쓌,4.1,41
2012/10/9,13:00:00,158,�É�,0,18,58.2,0,0.67,180,��,1.3,43
2012/10/9,14:00:00,180,��,0.3,17.7,60.1,0,0.57,203,��쐼,4,37
2012/10/9,15:00:00,180,��,2.8,15.9,65.7,0,0.37,180,��,4.8,25
2012/10/9,16:00:00,225,�쐼,1.2,14.3,79,0,0.08,203,��쐼,4.3,5
2012/10/9,17:00:00,293,�É�,0,11.4,93.4,0,0.04,203,��쐼,1.7,1
2012/10/9,18:00:00,270,��,1.5,8.9,97.5,0,0,293,���k��,2,57
2012/10/9,19:00:00,270,��,2.1,8.9,98.5,0,0,293,���k��,2.5,58
2012/10/9,20:00:00,293,���k��,2.3,8.7,99.1,0,0,293,���k��,3.3,59
2012/10/9,21:00:00,23,�k�k��,1.5,8.4,98.5,0,0,293,���k��,3.4,7
2012/10/9,22:00:00,293,���k��,1.9,8.3,98,0,0,293,���k��,2.5,58
2012/10/9,23:00:00,293,���k��,1.9,9.1,96.4,0,0,293,���k��,3.1,58
2012/10/9,0:00:00,315,�k��,2.4,9.3,97,0,0,315,�k��,3.8,57
2012/10/10,1:00:00,315,�k��,2.3,10.4,90.2,0,0,315,�k��,4.6,54
2012/10/10,2:00:00,315,�k��,1.3,10,92.9,0,0,315,�k��,3.9,5
2012/10/10,3:00:00,293,���k��,1.4,9,94.6,0,0,315,�k��,2.1,50
2012/10/10,4:00:00,293,���k��,1.1,7.3,96.9,0,0,315,�k��,2.1,0
2012/10/10,5:00:00,293,���k��,2.4,7.2,98.3,0,0,293,���k��,3.3,53
2012/10/10,6:00:00,315,�k��,1.6,7.6,99.1,0,0.01,293,���k��,2.9,45
2012/10/10,7:00:00,293,���k��,1.5,10.3,93.2,0,0.11,315,�k��,2.6,59
2012/10/10,8:00:00,315,�k��,1,13.5,81.2,0,0.32,338,�k�k��,2.7,3
2012/10/10,9:00:00,68,���k��,2.4,14.9,69.2,0,0.5,23,�k�k��,3.6,48
2012/10/10,10:00:00,68,���k��,3.3,15.1,64.4,0,0.62,90,��,5.6,55
2012/10/10,11:00:00,90,��,3.3,15.3,63.6,0,0.65,113,���쓌,6.3,26
2012/10/10,12:00:00,90,��,3.7,15.5,65.2,0,0.64,90,��,6.3,50
2012/10/10,13:00:00,113,���쓌,3,14.8,66.8,0,0.56,113,���쓌,5.5,1
2012/10/10,14:00:00,113,���쓌,3,13.7,69.9,0,0.38,90,��,5.5,19
2012/10/10,15:00:00,113,���쓌,1.5,13.4,69.7,0,0.21,90,��,4.8,1
2012/10/10,16:00:00,90,�É�,0.2,12.4,80.7,0,0.07,113,���쓌,3,23
2012/10/10,17:00:00,293,���k��,0.9,9.7,92.9,0,0.03,293,���k��,1.2,51
2012/10/10,18:00:00,270,��,1.5,9.2,97.1,0,0,293,���k��,2.1,43
2012/10/10,19:00:00,270,��,1.5,9.7,95.9,0,0,293,���k��,2,1
2012/10/10,20:00:00,293,���k��,0.5,9.5,96.9,0,0,293,���k��,1.9,29
2012/10/10,21:00:00,293,���k��,0.9,9.9,94.3,0,0,293,���k��,2.7,14
2012/10/10,22:00:00,338,�k�k��,0.6,9.7,96.3,0,0,293,���k��,1.7,0
2012/10/10,23:00:00,338,�k�k��,0.3,8.7,96.2,0,0,270,��,2.4,29
2012/10/10,0:00:00,293,���k��,2.6,9.9,95.5,0,0,293,���k��,3.5,52
2012/10/11,1:00:00,315,�k��,0.6,10.4,92.6,0,0,293,���k��,3.6,45
2012/10/11,2:00:00,68,���k��,1,11.4,86.7,0,0,293,���k��,3.6,18
2012/10/11,3:00:00,68,���k��,1.5,12.1,82.3,0,0,113,���쓌,6.3,27
2012/10/11,4:00:00,90,��,4,11.7,82.7,0,0,90,��,5.5,55
2012/10/11,5:00:00,113,���쓌,3.4,12.6,78.4,0,0,113,���쓌,6.2,36
2012/10/11,6:00:00,293,���k��,0.7,10.4,93,0,0.01,135,�쓌,5.1,5
2012/10/11,7:00:00,293,���k��,0.5,11.8,88.7,0,0.06,293,���k��,2.8,41
2012/10/11,8:00:00,113,���쓌,4.9,13.9,78.3,0,0.13,135,�쓌,7.9,57
2012/10/11,9:00:00,135,�쓌,3.8,13.9,72.9,0,0.05,135,�쓌,8.2,5
2012/10/11,10:00:00,135,�쓌,3.1,14.2,72.6,0,0.06,113,���쓌,9.3,24
2012/10/11,11:00:00,135,�쓌,3.8,14.5,73.6,0,0.12,158,��쓌,6.9,52
2012/10/11,12:00:00,135,�쓌,4.6,13.4,88.5,0,0.08,113,���쓌,8.8,51
2012/10/11,13:00:00,113,���쓌,5.5,14.1,87.4,0,0.07,113,���쓌,9,56
2012/10/11,14:00:00,113,���쓌,5.3,13.7,91.9,0,0.05,113,���쓌,8.8,41
2012/10/11,15:00:00,113,���쓌,5.7,13.6,95.6,2,0.04,113,���쓌,10.8,44
2012/10/11,16:00:00,113,���쓌,6,14.2,95.9,4,0.01,113,���쓌,13.2,37
2012/10/11,17:00:00,158,��쓌,3.2,14.5,95.2,4,0,113,���쓌,13.5,1
2012/10/11,18:00:00,315,�k��,2.3,12.2,96.4,3.5,0,113,���쓌,10.6,22
2012/10/11,19:00:00,293,���k��,5.2,11.5,97.8,20.5,0,293,���k��,8.6,59
2012/10/11,20:00:00,315,�k��,2.5,11.2,96.9,2.5,0,360,�k,12.3,1
2012/10/11,21:00:00,338,�k�k��,1.6,10.9,97.3,2,0,293,���k��,5.4,17
2012/10/11,22:00:00,293,���k��,4,11.2,97.9,0,0,293,���k��,7.3,55
2012/10/11,23:00:00,315,�k��,4.1,11.1,97.9,1,0,315,�k��,8,30
2012/10/11,0:00:00,338,�k�k��,1.6,11,98,0.5,0,315,�k��,6.4,0
2012/10/12,1:00:00,293,���k��,2.6,10.6,97.8,0,0,315,�k��,5.9,23
2012/10/12,2:00:00,315,�k��,3.3,10.6,98.4,0,0,293,���k��,5.9,35
2012/10/12,3:00:00,315,�k��,2.9,11.2,98.6,0,0,315,�k��,6,58
2012/10/12,4:00:00,315,�k��,3.3,11.4,98.3,0,0,293,���k��,6.1,2
2012/10/12,5:00:00,315,�k��,3,11.7,97.6,0,0,315,�k��,6.1,32
2012/10/12,6:00:00,293,���k��,3.1,11.9,97,0,0.01,315,�k��,5.2,39
2012/10/12,7:00:00,315,�k��,2.2,12.6,96.3,0,0.04,293,���k��,4.8,0
2012/10/12,8:00:00,315,�k��,2.6,14,90.6,0,0.23,338,�k�k��,4.6,57
2012/10/12,9:00:00,338,�k�k��,1.8,15.1,85.5,0,0.39,338,�k�k��,4.2,5
2012/10/12,10:00:00,360,�k,1.5,16.3,84.7,0,0.29,315,�k��,3.1,1
2012/10/12,11:00:00,68,���k��,2.7,18.1,81.5,0,0.48,90,��,4.3,49
2012/10/12,12:00:00,90,��,4.2,18.2,81.3,0,0.68,90,��,5.7,55
2012/10/12,13:00:00,90,��,5.1,17.4,85.6,0,0.65,90,��,7.2,54
2012/10/12,14:00:00,113,���쓌,3.2,15.5,91.7,0,0.26,135,�쓌,7,9
2012/10/12,15:00:00,113,���쓌,1.9,15.3,92,0,0.11,113,���쓌,4.6,2
2012/10/12,16:00:00,68,���k��,2.4,15,96,0,0.07,68,���k��,3.2,55
2012/10/12,17:00:00,23,�k�k��,0.9,14.1,97.8,0.5,0.01,68,���k��,2.9,6
2012/10/12,18:00:00,248,���쐼,1.1,13,97.9,0,0,270,��,1.7,26
2012/10/12,19:00:00,45,�k��,2.5,13.1,98.7,0,0,45,�k��,4.3,58
2012/10/12,20:00:00,23,�k�k��,1.7,11.3,96.8,0.5,0,23,�k�k��,7.2,5
2012/10/12,21:00:00,338,�k�k��,0.9,11.2,97.7,0.5,0,23,�k�k��,2.3,10
2012/10/12,22:00:00,315,�k��,0.5,10.6,96.3,0,0,270,��,2.3,18
2012/10/12,23:00:00,270,��,1.5,9.6,98.8,0,0,270,��,2.5,50
2012/10/12,0:00:00,293,���k��,1.2,8.2,99.1,0,0,248,���쐼,2.8,34
2012/10/13,1:00:00,270,��,1.9,7.5,99.4,0,0,248,���쐼,2.6,17
2012/10/13,2:00:00,270,��,2.1,7.5,99.6,0,0,293,���k��,3.9,28
2012/10/13,3:00:00,315,�k��,2.4,7.3,99.9,0,0,270,��,3.6,21
2012/10/13,4:00:00,293,���k��,1.6,6.2,99.6,0,0,315,�k��,3.4,2
2012/10/13,5:00:00,270,��,2.9,6.7,99.5,0,0,270,��,4.4,53
2012/10/13,6:00:00,270,��,1.1,6.6,99.1,0,0.02,338,�k�k��,3.4,21
2012/10/13,7:00:00,315,�k��,1.9,7.9,96.5,0,0.05,315,�k��,3.5,46
2012/10/13,8:00:00,293,���k��,2.3,9.8,95.8,0,0.12,293,���k��,3.3,57
2012/10/13,9:00:00,315,�k��,1.3,11.1,90.8,0,0.19,293,���k��,3.8,33
2012/10/13,10:00:00,338,�k�k��,2.3,14.9,77.8,0,0.59,315,�k��,4.2,49
2012/10/13,11:00:00,315,�k��,3.5,15.9,61,0,0.68,315,�k��,6,57
2012/10/13,12:00:00,23,�k�k��,2.6,16.3,60.7,0,0.67,338,�k�k��,7.5,28
2012/10/13,13:00:00,360,�k,3.2,17.2,61.3,0,0.59,45,�k��,6.4,22
2012/10/13,14:00:00,45,�k��,3.6,16.8,62.3,0,0.46,45,�k��,6.8,47
2012/10/13,15:00:00,45,�k��,3.3,15.3,66.3,0,0.29,23,�k�k��,5.6,44
2012/10/13,16:00:00,338,�k�k��,1.1,14,73.1,0,0.1,23,�k�k��,5.6,35
2012/10/13,17:00:00,360,�k,1.1,11.2,87,0,0.02,360,�k,2.6,12
2012/10/13,18:00:00,338,�k�k��,0.8,10.4,83.9,0,0,360,�k,2.7,59
2012/10/13,19:00:00,315,�k��,1.6,9.7,92.3,0,0,315,�k��,2.4,38
2012/10/13,20:00:00,270,��,1.8,7.3,95.6,0,0,315,�k��,2.6,7
2012/10/13,21:00:00,315,�k��,1.1,8.3,97.8,0,0,293,���k��,2.5,37
2012/10/13,22:00:00,293,���k��,1.8,7.1,97,0,0,293,���k��,2.7,21
2012/10/13,23:00:00,293,���k��,1.8,6.7,99.1,0,0,293,���k��,2.9,59
2012/10/13,0:00:00,293,���k��,1.5,5.4,98.1,0,0,315,�k��,3.7,20
2012/10/14,1:00:00,293,���k��,2.2,5.2,98.1,0,0,293,���k��,2.9,51
2012/10/14,2:00:00,293,���k��,1.7,5.5,99.1,0,0,293,���k��,3.7,40
2012/10/14,3:00:00,270,��,2,5.3,99,0,0,270,��,2.8,59
2012/10/14,4:00:00,293,���k��,0.9,5.7,98.5,0,0,270,��,3,0
2012/10/14,5:00:00,293,���k��,2.4,5,98.7,0,0,293,���k��,3.2,43
2012/10/14,6:00:00,315,�k��,2.2,5.8,99.3,0,0.01,293,���k��,3.3,46
2012/10/14,7:00:00,293,���k��,1.8,8.1,93.7,0,0.09,315,�k��,4,7
2012/10/14,8:00:00,315,�k��,1.7,10.9,86.3,0,0.29,293,���k��,2.9,24
2012/10/14,9:00:00,45,�k��,0.5,13.9,82.1,0,0.47,293,���k��,2.7,5
2012/10/14,10:00:00,113,���쓌,2.1,15.4,79.1,0,0.59,113,���쓌,3.1,59
2012/10/14,11:00:00,90,��,2.5,15.7,78.5,0,0.65,113,���쓌,4.6,5
2012/10/14,12:00:00,113,���쓌,2.6,15.3,79.9,0,0.65,90,��,5,23
2012/10/14,13:00:00,135,�쓌,2.6,15.9,79,0,0.62,113,���쓌,5.6,36
2012/10/14,14:00:00,135,�쓌,2.9,16.9,74.7,0,0.52,113,���쓌,5.8,5
2012/10/14,15:00:00,203,��쐼,2.7,17.2,67.1,0,0.38,180,��,6.1,40
2012/10/14,16:00:00,225,�쐼,3,15.8,68.5,0,0.19,225,�쐼,5.8,4
2012/10/14,17:00:00,203,��쐼,2.2,13.3,82,0,0.03,203,��쐼,6.6,24
2012/10/14,18:00:00,203,��쐼,0.9,11.7,90.8,0,0,203,��쐼,3.4,27
2012/10/14,19:00:00,203,��쐼,3,15.1,81.5,0,0,180,��,5.9,58
2012/10/14,20:00:00,203,��쐼,4.6,15.5,83.2,0,0,225,�쐼,7.7,53
2012/10/14,21:00:00,180,��,2.5,15.6,79,0,0,180,��,8,2
2012/10/14,22:00:00,158,��쓌,4,16.1,80.7,0,0,180,��,9,22
2012/10/14,23:00:00,203,��쐼,5.7,16.6,83.1,0,0,203,��쐼,12.3,41
2012/10/14,0:00:00,203,��쐼,4.9,16.6,86.4,0,0,203,��쐼,11.2,45
2012/10/15,1:00:00,180,��,4.9,16.7,87.2,0,0,180,��,11.3,4
2012/10/15,2:00:00,203,��쐼,4.4,17.1,78.4,0,0,180,��,8.7,16
2012/10/15,3:00:00,225,�쐼,5.8,16.3,64.1,0,0,225,�쐼,10.3,35
2012/10/15,4:00:00,248,���쐼,2.7,13.3,89.6,0,0,225,�쐼,7,2
2012/10/15,5:00:00,158,��쓌,1.3,12.6,95.2,1.5,0,270,��,3.9,0
2012/10/15,6:00:00,180,��,2,13.8,93.7,0,0.01,180,��,4.9,46
2012/10/15,7:00:00,270,��,0.4,13.8,95.6,0,0.06,158,��쓌,3.4,25
2012/10/15,8:00:00,225,�쐼,1.5,16.8,73.4,0,0.25,180,��,3.2,27
2012/10/15,9:00:00,225,�쐼,3.5,18.2,60.7,0,0.46,225,�쐼,6.6,45
2012/10/15,10:00:00,270,��,4.7,19,40.8,0,0.61,270,��,9.3,32
2012/10/15,11:00:00,293,���k��,6.3,18.4,30.1,0,0.69,270,��,10.4,57
2012/10/15,12:00:00,270,��,7.4,16.7,32.4,0,0.67,270,��,12.3,52
2012/10/15,13:00:00,270,��,3.4,16.7,42.8,0,0.2,270,��,11.5,0
2012/10/15,14:00:00,270,��,5.4,17,41,0,0.44,248,���쐼,10.2,12
2012/10/15,15:00:00,248,���쐼,4.5,16.5,42.6,0,0.4,293,���k��,8.9,11
2012/10/15,16:00:00,248,���쐼,3.5,14.4,53.2,0,0.2,248,���쐼,7.1,17
2012/10/15,17:00:00,315,�k��,0.3,9.7,80.3,0,0.03,248,���쐼,6.1,5
2012/10/15,18:00:00,248,���쐼,5,11.2,61.8,0,0,270,��,8.3,38
2012/10/15,19:00:00,360,�k,1.3,9.9,65.3,0,0,270,��,7.8,19
2012/10/15,20:00:00,293,���k��,1.3,4.7,89.1,0,0,360,�k,3.3,0
2012/10/15,21:00:00,270,��,2,4.8,92.2,0,0,293,���k��,3.6,42
2012/10/15,22:00:00,293,���k��,2.2,3.5,96.6,0,0,293,���k��,3.8,1
2012/10/15,23:00:00,270,��,2.5,3.7,97.1,0,0,293,���k��,4.9,1
2012/10/15,0:00:00,270,��,2,3.2,96.8,0,0,315,�k��,4.6,55
2012/10/16,1:00:00,270,��,2.2,2.2,98.1,0,0,293,���k��,3.7,21
2012/10/16,2:00:00,293,���k��,2.7,3.1,95.3,0,0,293,���k��,6.2,43
2012/10/16,3:00:00,293,���k��,2.4,3.9,94.5,0,0,293,���k��,4.4,11
2012/10/16,4:00:00,270,��,2.8,3.4,94.2,0,0,293,���k��,4.4,18
2012/10/16,5:00:00,293,���k��,0.4,1.4,96.7,0,0,248,���쐼,5,18
2012/10/16,6:00:00,293,���k��,2.8,2.4,98.9,0,0.01,293,���k��,3.8,53
2012/10/16,7:00:00,293,���k��,2.5,6.9,86.7,0,0.09,293,���k��,4.7,28
2012/10/16,8:00:00,248,���쐼,3.5,13.8,55.7,0,0.31,270,��,6,45
2012/10/16,9:00:00,293,���k��,7.2,15.9,36.4,0,0.49,293,���k��,13.9,48
2012/10/16,10:00:00,293,���k��,7.2,17,31.8,0,0.62,315,�k��,12.3,50
2012/10/16,11:00:00,315,�k��,4.7,17.7,28.9,0,0.69,270,��,13.6,16
2012/10/16,12:00:00,338,�k�k��,2.5,18.9,31,0,0.69,293,���k��,7.6,3
2012/10/16,13:00:00,360,�k,2.7,17.7,37.3,0,0.63,23,�k�k��,6.7,18
2012/10/16,14:00:00,360,�k,2.4,18,34.7,0,0.53,338,�k�k��,6,53
2012/10/16,15:00:00,135,�쓌,2.3,16.1,55.3,0,0.37,158,��쓌,6.4,59
2012/10/16,16:00:00,135,�쓌,3.6,14.4,67.1,0,0.18,135,�쓌,7,51